Weather History for Marrakech, Morocco

Change the Weather History Date:

Thursday, October 13, 2011

  Actual Average Record
Temperature  
Mean Temperature 80 °F -  
Max Temperature 95 °F 76 °F - ()
Min Temperature 64 °F 54 °F - ()
Cooling Degree Days 14    
Growing Degree Days 30 (Base 50)    
Moisture  
Dew Point 52 °F    
Average Humidity 40    
Maximum Humidity 64    
Minimum Humidity 9    
Precipitation  
Precipitation 0.00 in 0.04 in - ()
Sea Level Pressure  
Sea Level Pressure 30.07 in    
Wind  
Wind Speed 4 mph ()    
Max Wind Speed 12 mph    
Max Gust Speed -    
Visibility 3.9 miles    
Events      
T = Trace of Precipitation, MM = Missing Value Source: Averaged Metar Reports

Daily Weather History Graph

Daily Weather History Graph

Search for Another Location

Airport:

Trip Planner

Search our weather history database for the weather conditions in past years. The results will help you decide how hot, cold, wet, or windy it might be!

Date:

Astronomy

Oct. 13, 2011 Rise Set
Actual Time 6:33 AM WET 6:02 PM WET
Civil Twilight 6:09 AM WET 6:27 PM WET
Nautical Twilight 5:40 AM WET 6:55 PM WET
Astronomical Twilight 5:12 AM WET 7:23 PM WET
Moon 6:40 PM WET (10/13) 7:43 AM WET (10/13)
Length of Visible Light 12h 18m
Length of Day
11h 29m
Full, 98% of the Moon is Illuminated
Oct 13
Full
Oct 20
Last Quarter
Oct 26
New
Nov 2
First Quarter
Nov 10
Full

Hourly Weather History & Observations

Time (WET) Temp. Heat Index Dew Point Humidity Pressure Visibility Wind Dir Wind Speed Gust Speed Precip Events Conditions
12:00 AM 70 °F - 56 °F 53% 30.06 in 4 mi SW 3.5 mph - -   Partly Cloudy
12:00 AM 69.8 °F - 57.2 °F 64% 30.09 in 3.7 mi SW 3.5 mph - N/A   Scattered Clouds
12:30 AM 71.6 °F - 57.2 °F 60% 30.09 in 3.7 mi SW 6.9 mph - N/A   Scattered Clouds
1:00 AM 73.4 °F - 59.0 °F 61% 30.09 in 4.3 mi SSW 5.8 mph - N/A   Scattered Clouds
1:30 AM 73.4 °F - 57.2 °F 57% 30.09 in 4.3 mi Calm Calm - N/A   Scattered Clouds
2:00 AM 71.6 °F - 55.4 °F 57% 30.06 in 4.3 mi Variable 2.3 mph - N/A   Scattered Clouds
2:30 AM 69.8 °F - 55.4 °F 60% 30.06 in 4.3 mi Variable 2.3 mph - N/A   Unknown
3:00 AM 69 °F - 53 °F 47% 30.03 in 4 mi Calm Calm - -   Partly Cloudy
3:00 AM 68.0 °F - 53.6 °F 60% 30.06 in 4.3 mi Calm Calm - N/A   Scattered Clouds
3:30 AM 69.8 °F - 50.0 °F 49% 30.06 in 4.3 mi SSE 2.3 mph - N/A   Scattered Clouds
4:00 AM 69.8 °F - 51.8 °F 53% 30.06 in 4.3 mi ESE 2.3 mph - N/A   Scattered Clouds
4:30 AM 68.0 °F - 51.8 °F 56% 30.06 in 4.3 mi NE 1.2 mph - N/A   Scattered Clouds
5:00 AM 66.2 °F - 51.8 °F 60% 30.06 in 4.3 mi West 3.5 mph - N/A   Scattered Clouds
5:30 AM 66.2 °F - 50.0 °F 56% 30.06 in 4.3 mi Calm Calm - N/A   Unknown
6:00 AM 65 °F - 51 °F 51% 30.05 in 4 mi East 2.3 mph - -   Partly Cloudy
6:00 AM 64.4 °F - 51.8 °F 64% 30.09 in 4.3 mi ESE 2.3 mph - N/A   Scattered Clouds
6:30 AM 66.2 °F - 51.8 °F 60% 30.09 in 3.7 mi Calm Calm - N/A   Scattered Clouds
7:00 AM 64.4 °F - 51.8 °F 64% 30.09 in 3.1 mi Calm Calm - N/A   Scattered Clouds
7:30 AM 69.8 °F - 50.0 °F 49% 30.09 in 3.1 mi Calm Calm - N/A   Scattered Clouds
8:00 AM 73.4 °F - 51.8 °F 47% 30.12 in - Variable 2.3 mph - N/A   Scattered Clouds
8:30 AM 75.2 °F - 51.8 °F 44% 30.12 in 3.1 mi Variable 1.2 mph - N/A   Scattered Clouds
9:00 AM 81 °F - 53 °F 27% 30.05 in 4 mi Calm Calm - -   Scattered Clouds
9:00 AM 80.6 °F - 51.8 °F 37% 30.12 in 3.7 mi Calm Calm - N/A   Scattered Clouds
9:30 AM 80.6 °F 80.3 °F 53.6 °F 39% 30.12 in 3.1 mi NNE 3.5 mph - N/A   Scattered Clouds
9:47 AM 82.4 °F 81.7 °F 55.4 °F 39% 30.12 in 2.5 mi North 3.5 mph - N/A   Smoke
10:00 AM 82.4 °F 81.7 °F 55.4 °F 39% 30.12 in 2.5 mi Calm Calm - N/A   Smoke
10:30 AM 84.2 °F 83.0 °F 55.4 °F 37% 30.12 in 2.5 mi NNW 3.5 mph - N/A   Smoke
10:50 AM 86.0 °F 84.2 °F 53.6 °F 33% 30.12 in 3.1 mi NNW 4.6 mph - N/A   Scattered Clouds
11:00 AM 86.0 °F 84.2 °F 53.6 °F 33% 30.12 in 3.1 mi NNW 4.6 mph - N/A   Scattered Clouds
11:30 AM 87.8 °F - 51.8 °F 29% 30.12 in 3.7 mi NNW 3.5 mph - N/A   Scattered Clouds
12:00 PM 91.4 °F - 51.8 °F 26% 30.12 in 3.7 mi NW 4.6 mph - N/A   Scattered Clouds
12:30 PM 91.4 °F - 50.0 °F 24% 30.09 in 3.7 mi NW 6.9 mph - N/A   Scattered Clouds
1:00 PM 93.2 °F - 48.2 °F 21% 30.06 in 3.7 mi NW 9.2 mph - N/A   Scattered Clouds
1:30 PM 95.0 °F - 46.4 °F 19% 30.06 in 5.0 mi WNW 10.4 mph - N/A   Scattered Clouds
2:00 PM 95.0 °F - 42.8 °F 16% 30.04 in 5.0 mi NW 8.1 mph - N/A   Scattered Clouds
2:30 PM 95.0 °F - 42.8 °F 16% 30.04 in 5.0 mi NW 9.2 mph - N/A   Scattered Clouds
3:00 PM 95 °F - 42 °F 9% 29.92 in 5 mi WNW 8.1 mph - -   Scattered Clouds
3:00 PM 95.0 °F - 42.8 °F 16% 30.04 in 5.0 mi WNW 9.2 mph - N/A   Scattered Clouds
3:30 PM 95.0 °F - 42.8 °F 16% 30.04 in 4.3 mi NW 9.2 mph - N/A   Scattered Clouds
4:00 PM 95.0 °F - 42.8 °F 16% 30.04 in 4.3 mi Variable 5.8 mph - N/A   Scattered Clouds
4:30 PM 95.0 °F - 39.2 °F 14% 30.04 in 4.3 mi NW 5.8 mph - N/A   Scattered Clouds
5:00 PM 95.0 °F - 39.2 °F 14% 30.04 in 4.3 mi NNW 4.6 mph - N/A   Scattered Clouds
5:30 PM 89.6 °F - 44.6 °F 21% 30.04 in 4.3 mi NNW 5.8 mph - N/A   Scattered Clouds
6:00 PM 88 °F - 46 °F 14% 29.96 in 3 mi NNW 9.2 mph - -   Mostly Cloudy
6:00 PM 87.8 °F - 46.4 °F 24% 30.04 in 3.1 mi NNW 9.2 mph - N/A   Scattered Clouds
6:30 PM 86.0 °F - 46.4 °F 25% 30.06 in 3.1 mi North 11.5 mph - N/A   Scattered Clouds
7:00 PM 86.0 °F - 48.2 °F 27% 30.06 in 4.3 mi North 11.5 mph - N/A   Scattered Clouds
7:30 PM 84.2 °F - 51.8 °F 33% 30.06 in 4.3 mi North 8.1 mph - N/A   Scattered Clouds
8:00 PM 84.2 °F 83.0 °F 55.4 °F 37% 30.09 in 4.3 mi North 10.4 mph - N/A   Scattered Clouds
8:30 PM 82.4 °F 82.5 °F 59.0 °F 45% 30.09 in 4.3 mi NNW 5.8 mph - N/A   Scattered Clouds
9:00 PM 79 °F - 59 °F 40% 30.03 in 4 mi West 6.9 mph - -   Partly Cloudy
9:00 PM 80.6 °F 81.1 °F 59.0 °F 48% 30.09 in 3.7 mi West 6.9 mph - N/A   Scattered Clouds
9:30 PM 77.0 °F - 59.0 °F 54% 30.12 in 4.3 mi West 6.9 mph - N/A   Scattered Clouds
10:00 PM 77.0 °F - 57.2 °F 50% 30.12 in 4.3 mi West 5.8 mph - N/A   Scattered Clouds
10:30 PM 75.2 °F - 59.0 °F 57% 30.12 in 4.3 mi West 6.9 mph - N/A   Scattered Clouds
11:00 PM 75.2 °F - 59.0 °F 57% 30.12 in 4.3 mi West 4.6 mph - N/A   Scattered Clouds
11:30 PM 71.6 °F - 57.2 °F 60% 30.09 in 3.7 mi West 4.6 mph - N/A   Scattered Clouds